sat.trackr.live / text

‹ back to catalog

STARLINK-31022

NORAD 58633 · 2023-203R

PAYLOAD ACTIVE UNKNOWN

§ Identity

Operator
Country
US
Launch date
2023-12-23
Launch site
AFETR
Launch vehicle
Mass (kg)
RCS (m²)

Purposes: comms

External: N2YO · Heavens-Above · Gunter

§ Orbital elements

Epoch: 2026-09-20T03:11:46.532544Z

Period
94.27 min
Inclination
43.0034°
Eccentricity
0.0000779
Mean motion
15.27577601 rev/d
Perigee alt
482.5 km
Apogee alt
483.6 km
Semi-major
6,861.2 km
B*
-7.4220e-6
RAAN
52.8742°
Arg perigee
277.0422°
Mean anomaly
83.0341°
Rev number
15,448

§ Raw data

STARLINK-310221 58633U 23203R   26263.13317746 -.00000466  00000+0 -74220-5 0  99932 58633  43.0034  52.8742 0000779 277.0422  83.0341 15.27577601154488

JSON: /api/v1/satellites/58633 · /tle

For live sub-satellite position, see the globe view (requires WebGL).

§ Visibility from observer

Set your observer location to see the next 7 days of passes ≥ 10°. The values pass through the URL so the page stays shareable.

No JS? Fill the form by hand. The geolocation button needs JavaScript.